Hutchinson, MN

9:14 PM CST on February 12, 2016 (GMT -0600)
Hutchinson Municipal-Butler

Weather History for KHCD - August, 2014

Change the Weather History Date:

Wednesday, August 6, 2014

  Actual Average Record
Temperature  
Mean Temperature 70 °F -  
Max Temperature 80 °F 82 °F 93 °F (1963)
Min Temperature 60 °F 58 °F 45 °F (1977)
Cooling Degree Days 5    
Growing Degree Days 20 (Base 50)    
Moisture  
Dew Point 61 °F    
Average Humidity 68    
Maximum Humidity 93    
Minimum Humidity 48    
Precipitation  
Precipitation 0.00 in - - ()
Sea Level Pressure  
Sea Level Pressure 30.09 in    
Wind  
Wind Speed 5 mph (East)    
Max Wind Speed 13 mph    
Max Gust Speed 18 mph    
Visibility 10 miles    
Events      
Averages and records for this station are not official NWS values.
T = Trace of Precipitation, MM = Missing Value Source: NWS Daily Summary

Daily Weather History Graph

Daily Weather History Graph

Search for Another Location

Airport or City:

Trip Planner

Search our weather history database for the weather conditions in past years. The results will help you decide how hot, cold, wet, or windy it might be!

Date:

Astronomy

Aug. 06, 2014 Rise Set
Actual Time 6:09 AM CDT 8:36 PM CDT
Civil Twilight 5:36 AM CDT 9:09 PM CDT
Nautical Twilight 4:54 AM CDT 9:50 PM CDT
Astronomical Twilight 4:08 AM CDT 10:37 PM CDT
Moon 4:57 PM CDT (8/6) 1:43 AM CDT (8/6)
Length of Visible Light 15h 33m
Length of Day
14h 27m
Waxing Gibbous, 78% of the Moon is Illuminated
Aug 6
Waxing Gibbous
Aug 10
Full
Aug 17
Last Quarter
Aug 25
New
Sep 2
First Quarter

Hourly Weather History & Observations

Time (CDT) Temp. Heat Index Dew Point Humidity Pressure Visibility Wind Dir Wind Speed Gust Speed Precip Events Conditions
12:27 AM 61.7 °F - 58.8 °F 90% 30.12 in 10.0 mi Calm Calm - N/A   Clear
12:57 AM 62.4 °F - 58.8 °F 88% 30.12 in 10.0 mi Calm Calm - N/A   Clear
1:06 AM 60.8 °F - 58.6 °F 93% 30.12 in 10.0 mi Calm Calm - N/A   Clear
1:26 AM 61.2 °F - 59.0 °F 93% 30.12 in 10.0 mi Calm Calm - N/A   Clear
1:50 AM 62.2 °F - 58.6 °F 88% 30.11 in 10.0 mi NE 5.8 mph - N/A   Clear
1:57 AM 62.6 °F - 59.4 °F 89% 30.11 in 10.0 mi NE 4.6 mph - N/A   Clear
2:22 AM 63.5 °F - 59.5 °F 87% 30.11 in 10.0 mi NE 4.6 mph - N/A   Clear
2:52 AM 63.9 °F - 59.5 °F 86% 30.10 in 10.0 mi ENE 5.8 mph - N/A   Clear
3:04 AM 63.9 °F - 59.2 °F 85% 30.10 in 10.0 mi ENE 4.6 mph - N/A   Clear
8:17 AM 66.2 °F - 60.8 °F 83% 30.11 in 10.0 mi ENE 4.6 mph - N/A   Clear
8:33 AM 67.8 °F - 61.9 °F 81% 30.11 in 10.0 mi NE 6.9 mph - N/A   Clear
8:53 AM 70.2 °F - 62.4 °F 76% 30.11 in 10.0 mi ENE 5.8 mph - N/A   Clear
9:12 AM 70.0 °F - 61.7 °F 75% 30.11 in 10.0 mi East 4.6 mph - N/A   Clear
9:32 AM 71.6 °F - 62.2 °F 72% 30.11 in 10.0 mi East 5.8 mph - N/A   Clear
9:52 AM 72.5 °F - 62.6 °F 71% 30.11 in 10.0 mi East 4.6 mph - N/A   Clear
10:13 AM 74.3 °F - 62.2 °F 66% 30.11 in 10.0 mi East 8.1 mph - N/A   Clear
10:33 AM 74.7 °F - 61.3 °F 63% 30.11 in 10.0 mi East 9.2 mph - N/A   Clear
10:52 AM 75.0 °F - 61.2 °F 62% 30.12 in 10.0 mi East 9.2 mph - N/A   Clear
11:12 AM 76.1 °F - 60.8 °F 59% 30.11 in 10.0 mi East 9.2 mph - N/A   Clear
11:33 AM 76.5 °F - 58.6 °F 54% 30.11 in 10.0 mi East 10.4 mph - N/A   Clear
11:53 AM 77.4 °F - 59.0 °F 53% 30.11 in 10.0 mi East 10.4 mph 17.3 mph N/A   Clear
12:13 PM 77.5 °F - 59.0 °F 53% 30.10 in 10.0 mi East 12.7 mph 16.1 mph N/A   Clear
12:33 PM 77.5 °F - 59.2 °F 53% 30.10 in 10.0 mi East 10.4 mph - N/A   Clear
12:52 PM 77.9 °F - 59.0 °F 52% 30.10 in 10.0 mi East 10.4 mph - N/A   Clear
1:12 PM 78.3 °F - 58.6 °F 51% 30.10 in 10.0 mi East 10.4 mph - N/A   Clear
1:33 PM 78.4 °F - 59.5 °F 52% 30.09 in 10.0 mi East 9.2 mph 18.4 mph N/A   Clear
1:53 PM 79.0 °F - 60.1 °F 52% 30.09 in 10.0 mi East 12.7 mph - N/A   Clear
2:13 PM 79.0 °F - 60.3 °F 53% 30.09 in 10.0 mi ESE 8.1 mph - N/A   Clear
2:33 PM 79.3 °F - 59.2 °F 50% 30.09 in 10.0 mi ESE 12.7 mph - N/A   Clear
2:52 PM 79.7 °F - 59.9 °F 51% 30.09 in 10.0 mi East 9.2 mph - N/A   Clear
3:13 PM 80.2 °F 81.1 °F 60.4 °F 51% 30.08 in 10.0 mi ESE 11.5 mph - N/A   Scattered Clouds
3:33 PM 79.7 °F - 58.3 °F 48% 30.08 in 10.0 mi East 9.2 mph - N/A   Clear
3:52 PM 79.9 °F - 58.8 °F 48% 30.08 in 10.0 mi SE 9.2 mph - N/A   Clear
4:12 PM 80.1 °F 81.0 °F 60.3 °F 51% 30.08 in 10.0 mi SE 8.1 mph - N/A   Clear
4:33 PM 80.2 °F 81.0 °F 59.9 °F 50% 30.07 in 10.0 mi ESE 9.2 mph - N/A   Clear
4:53 PM 79.5 °F - 59.7 °F 51% 30.07 in 10.0 mi SE 5.8 mph - N/A   Clear
5:12 PM 79.9 °F - 61.3 °F 53% 30.07 in 10.0 mi SE 5.8 mph - N/A   Clear
5:33 PM 78.8 °F - 60.6 °F 54% 30.06 in 10.0 mi SE 8.1 mph - N/A   Clear
5:52 PM 78.8 °F - 60.6 °F 54% 30.06 in 10.0 mi SE 5.8 mph - N/A   Clear
6:12 PM 78.4 °F - 60.8 °F 55% 30.06 in 10.0 mi SE 6.9 mph - N/A   Clear
6:33 PM 78.1 °F - 61.5 °F 57% 30.05 in 10.0 mi SE 6.9 mph - N/A   Clear
6:53 PM 77.5 °F - 61.5 °F 58% 30.06 in 10.0 mi SE 5.8 mph - N/A   Clear
7:13 PM 77.0 °F - 62.1 °F 60% 30.05 in 10.0 mi SE 4.6 mph - N/A   Clear
7:33 PM 76.1 °F - 63.0 °F 64% 30.05 in 10.0 mi ESE 4.6 mph - N/A   Clear
7:53 PM 74.7 °F - 63.3 °F 68% 30.05 in 10.0 mi SE 3.5 mph - N/A   Clear
8:13 PM 73.8 °F - 63.1 °F 69% 30.05 in 10.0 mi Calm Calm - N/A   Clear
8:33 PM 72.9 °F - 63.5 °F 72% 30.05 in 10.0 mi Calm Calm - N/A   Clear
8:53 PM 72.1 °F - 63.0 °F 73% 30.06 in 10.0 mi Calm Calm - N/A   Clear
9:12 PM 69.6 °F - 62.6 °F 78% 30.06 in 10.0 mi Calm Calm - N/A   Clear
9:33 PM 70.2 °F - 62.8 °F 77% 30.07 in 10.0 mi Calm Calm - N/A   Clear
9:52 PM 68.7 °F - 62.6 °F 81% 30.07 in 10.0 mi Calm Calm - N/A   Clear
10:13 PM 65.3 °F - 61.9 °F 89% 30.07 in 10.0 mi Calm Calm - N/A   Clear
10:31 PM 68.2 °F - 61.7 °F 80% 30.08 in 10.0 mi Calm Calm - N/A   Clear
10:53 PM 64.8 °F - 61.3 °F 89% 30.08 in 10.0 mi Calm Calm - N/A   Clear
11:12 PM 64.8 °F - 60.8 °F 87% 30.08 in 10.0 mi Calm Calm - N/A   Clear
11:33 PM 63.0 °F - 60.4 °F 91% 30.08 in 10.0 mi Calm Calm - N/A   Clear
11:53 PM 64.2 °F - 60.8 °F 89% 30.08 in 10.0 mi Calm Calm - N/A   Clear